KE4PKT Weather Reports


time (UTC)temp
C
wind
direction
speed
KPH
gust
KPH
rain 1hr
cm
rain 24hr
cm
rain mn
cm
humidity
%
barometer
mb
20260906070100 21 0 0.0 0.0 0.00 0.38 0.03 96 1012.5
20260906064548 21 0 0.0 0.0 0.00 0.38 0.03 96 1012.6
20260906063100 21 0 0.0 0.0 0.00 0.38 0.03 96 1012.8
20260906061550 21 0 0.0 0.0 0.03 0.38 0.03 96 1013.0
20260906054607 21 0 0.0 0.0 0.03 0.38 0.03 96 1013.2
20260906053103 21 0 0.0 0.0 0.03 0.38 0.03 95 1013.2
20260906051725 22 0 0.0 0.0 0.00 0.36 0.00 95 1013.2
20260906051648 22 0 0.0 0.0 0.00 0.36 0.00 95 1013.2
20260906050047 22 0 0.0 0.0 0.00 0.36 0.00 95 1013.4
20260906044542 22 0 0.0 0.0 0.00 0.36 0.00 94 1013.4
20260906043101 22 0 0.0 0.0 0.00 0.36 0.00 93 1013.2
20260906041547 22 0 0.0 0.0 0.00 0.36 0.00 93 1013.1
20260906040046 22 0 0.0 1.6 0.08 0.36 0.00 93 1012.7
20260906034555 22 0 0.0 6.4 0.08 0.36 0.36 92 1012.8
20260906033058 23 68 0.0 3.2 0.08 0.36 0.36 91 1013.0
20260906031544 23 0 0.0 8.0 0.08 0.36 0.36 90 1012.8
20260906030059 23 60 3.2 8.0 0.00 0.28 0.28 88 1013.0
20260906024553 23 0 0.0 0.0 0.00 0.28 0.28 88 1012.9
20260906023058 23 5 0.0 6.4 0.00 0.28 0.28 88 1012.4
20260906021603 23 0 0.0 0.0 0.00 0.28 0.28 88 1012.5
20260906020059 23 0 0.0 0.0 0.00 0.28 0.28 87 1012.8
20260906014550 23 0 0.0 0.0 0.00 0.28 0.28 87 1012.6
20260906013101 24 0 0.0 0.0 0.00 0.28 0.28 85 1012.4
20260906011602 24 0 0.0 0.0 0.00 0.28 0.28 84 1012.0
20260906010140 25 0 0.0 0.0 0.00 0.28 0.28 83 1012.1
20260906004555 25 0 0.0 0.0 0.00 0.28 0.28 80 1012.0
20260906003050 26 0 0.0 0.0 0.00 0.28 0.28 79 1011.9
20260906001600 26 0 0.0 0.0 0.00 0.28 0.28 77 1011.9
20260906000100 26 0 0.0 0.0 0.00 0.28 0.28 76 1011.9
20260905234544 27 0 0.0 1.6 0.00 0.28 0.28 75 1012.2
20260905233049 27 0 0.0 6.4 0.00 0.28 0.28 73 1012.3
20260905231624 28 0 1.6 8.0 0.00 0.28 0.28 72 1012.4
20260905230114 28 26 4.8 17.7 0.00 0.28 0.28 70 1012.7
20260905224548 29 32 11.3 30.6 0.00 0.28 0.28 67 1012.5
20260905223117 31 50 9.7 22.5 0.00 0.28 0.28 58 1012.0
20260905221544 33 342 4.8 14.5 0.00 0.28 0.28 55 1011.9
20260905220106 33 0 3.2 11.3 0.00 0.28 0.28 55 1012.0
20260905214549 33 338 3.2 14.5 0.00 0.28 0.28 54 1012.0
20260905213043 33 287 4.8 17.7 0.00 0.28 0.28 52 1011.7
20260905211549 33 273 4.8 12.9 0.00 0.28 0.28 53 1011.9
20260905210125 33 0 6.4 16.1 0.00 0.28 0.28 54 1011.9
20260905204547 33 227 1.6 11.3 0.00 0.28 0.28 55 1012.0
20260905203052 33 298 4.8 17.7 0.00 0.28 0.28 53 1011.9
20260905201549 33 284 9.7 14.5 0.00 0.28 0.28 53 1012.1
20260905200135 33 0 3.2 16.1 0.00 0.28 0.28 56 1012.3
20260905194549 33 0 3.2 11.3 0.00 0.28 0.28 53 1012.7
20260905193133 33 271 9.7 17.7 0.00 0.28 0.28 55 1012.9
20260905191549 33 275 11.3 19.3 0.00 0.28 0.28 54 1013.1
20260905190048 33 232 3.2 12.9 0.00 0.28 0.28 55 1013.1
20260905184611 33 216 3.2 11.3 0.00 0.28 0.28 56 1013.4
20260905183050 33 209 1.6 12.9 0.00 0.28 0.28 56 1013.5
20260905181637 32 256 4.8 11.3 0.00 0.28 0.28 59 1013.7
20260905180043 32 244 1.6 11.3 0.00 0.28 0.28 60 1013.8
20260905174550 32 173 1.6 11.3 0.00 0.28 0.28 62 1014.0
20260905173121 31 0 1.6 11.3 0.00 0.28 0.28 60 1014.2
20260905171556 31 0 1.6 8.0 0.00 0.28 0.28 60 1014.4
20260905170049 30 217 0.0 8.0 0.00 0.28 0.28 61 1014.3
20260905164607 30 159 1.6 11.3 0.00 0.28 0.28 66 1014.4
20260905163125 29 180 1.6 12.9 0.00 0.28 0.28 65 1014.3
20260905161642 28 200 3.2 9.7 0.00 0.28 0.28 70 1014.4
20260905160052 28 210 3.2 11.3 0.00 0.28 0.28 70 1014.6
20260905154606 27 184 3.2 16.1 0.00 0.28 0.28 75 1014.7
20260905153047 27 196 4.8 12.9 0.00 0.28 0.28 76 1015.0
20260905151553 26 101 3.2 11.3 0.00 0.28 0.28 78 1015.2
20260905150050 25 123 1.6 6.4 0.00 0.28 0.28 82 1015.3
20260905144549 24 0 3.2 9.7 0.00 0.28 0.28 86 1015.3
20260905143103 22 0 0.0 8.0 0.00 0.28 0.28 91 1015.6
20260905141558 21 0 0.0 3.2 0.00 0.28 0.28 94 1015.5
20260905140058 21 80 0.0 4.8 0.00 0.28 0.28 94 1015.6
20260905134548 20 0 0.0 4.8 0.00 0.28 0.28 95 1015.8
20260905133052 20 62 3.2 9.7 0.00 0.28 0.28 94 1016.0
20260905131558 20 65 6.4 14.5 0.08 0.28 0.28 94 1016.2
20260905130046 20 46 12.9 25.7 0.10 0.28 0.28 94 1016.5
20260905124555 20 76 8.0 29.0 0.10 0.28 0.28 93 1017.2
20260905123113 21 26 17.7 41.8 0.25 0.25 0.25 91 1017.5
20260905121547 23 334 19.3 33.8 0.20 0.20 0.20 91 1017.0
20260905120052 23 307 3.2 12.9 0.18 0.18 0.18 91 1015.8
20260905114550 23 270 14.5 25.7 0.18 0.18 0.18 92 1015.0
20260905113112 23 302 11.3 27.4 0.00 0.00 0.00 93 1015.0
20260905111554 22 289 16.1 38.6 0.00 0.00 0.00 97 1014.9
20260905110049 21 0 0.0 0.0 0.00 0.00 0.00 97 1014.0
20260905104548 21 0 0.0 0.0 0.00 0.00 0.00 97 1013.8
20260905103057 21 0 0.0 0.0 0.00 0.00 0.00 97 1013.5
20260905101558 21 0 0.0 0.0 0.00 0.00 0.00 97 1013.7
20260905100057 21 0 0.0 0.0 0.00 0.00 0.00 97 1013.8
20260905094549 21 0 0.0 0.0 0.00 0.00 0.00 97 1013.6
20260905093047 21 0 0.0 0.0 0.00 0.00 0.00 97 1013.8
20260905091555 22 0 0.0 0.0 0.00 0.00 0.00 96 1013.8
20260905090048 22 0 0.0 0.0 0.00 0.00 0.00 97 1013.7
20260905084608 22 0 0.0 0.0 0.00 0.00 0.00 97 1013.7
20260905083049 22 0 0.0 0.0 0.00 0.00 0.00 97 1013.4
20260905081549 22 0 0.0 0.0 0.00 0.00 0.00 96 1013.2
20260905080144 22 0 0.0 0.0 0.00 0.00 0.00 96 1013.2
20260905074550 22 0 0.0 0.0 0.00 0.00 0.00 96 1013.4
20260905073053 22 0 0.0 0.0 0.00 0.00 0.00 96 1013.4
20260905071550 22 0 0.0 0.0 0.00 0.00 0.00 96 1013.8